Regional Weather Roundup
Issued by NWS

Home | Current Version | Previous Version | Graphics & Text | Print | Product List | Glossary On
Versions: 1 2 3 4 5 6 7 8 9 10 11 12 13 14 15 16 17 18 19 20 21 22 23 24 25 26 27 28 29 30 31 32 33 34 35 36 37 38 39 40 41 42 43 44 45 46 47 48 49 50
834
ASUS43 KMKX 251911
RWRWI

WISCONSIN REGIONAL WEATHER ROUNDUP
NATIONAL WEATHER SERVICE MILWAUKEE/SULLIVAN WI
200 PM CDT TUE JUL 25 2017

NOTE: "FAIR" INDICATES FEW OR NO CLOUDS BELOW 12,000 FEET WITH NO
SIGNIFICANT WEATHER AND/OR OBSTRUCTIONS TO VISIBILITY.

WIZ001-002-006>008-014>016-023>028-252000-
NORTHWEST WISCONSIN

CITY           SKY/WX    TMP DP  RH WIND       PRES   REMARKS
SUPERIOR ARPT  NOT AVBL
ASHLAND        CLOUDY    78  64  61 S16G26    30.00F HX  80
HAYWARD        LGT RAIN  72  64  76 S10       30.03F
SIREN          CLOUDY    74  64  69 S10       30.01S
CUMBERLAND     CLOUDY    70  61  73 S13G20    30.03S
RICE LAKE      PTSUNNY   74  61  65 S17       30.05R
CHETEK         PTSUNNY   74  65  71 S9G18     30.05S
LADYSMITH      CLOUDY    70  62  74 SE6       30.09R
EAU CLAIRE     CLOUDY    72  63  73 S18       30.04S
MENOMONIE      PTSUNNY   76  65  70 SE12      30.03F
NEW RICHMOND   MOSUNNY   77  64  63 S14G20    30.00F
OSCEOLA        CLOUDY    79  67  66 S14       30.01S HX  81
$$

WIZ003>005-009-010-017-018-252000-
NORTH CENTRAL WISCONSIN

CITY           SKY/WX    TMP DP  RH WIND       PRES   REMARKS
MANITOWISH WTR MOSUNNY   74  58  57 S13G20    30.08F
ARBOR VITAE    SUNNY     74  57  54 S15G21    30.10S
WOODRUFF       SUNNY     74  57  54 S15G21    30.10S
RHINELANDER    MOSUNNY   72  51  47 S13G20    30.12F
EAGLE RIVER    SUNNY     74  43  32 SW9G16    30.11F
LAND O LAKES   SUNNY     75  45  34 S10G16    30.13F
PHILLIPS       CLOUDY    73  60  65 S10       30.08F
TOMAHAWK         N/A     68  55  61 S5        30.12S
MEDFORD        PTSUNNY   67  59  75 S15       30.09F
MERRILL        CLOUDY    71  58  64 SE12      30.11F
$$

WIZ029-030-035-036-043>047-252000-
CENTRAL WISCONSIN

CITY           SKY/WX    TMP DP  RH WIND       PRES   REMARKS
WAUSAU         CLOUDY    72  58  61 S17       30.09F
MOSINEE        PTSUNNY   66  63  88 S9        30.12F
MARSHFIELD     MOSUNNY   71  60  68 S13G23    30.09F
STEVENS POINT  CLOUDY    67  60  79 SE8       30.12F
WAUPACA        PTSUNNY   74  60  59 S8        30.14F
WAUTOMA        CLOUDY    71  61  70 S10       30.13F
WISC RAPIDS    CLOUDY    74  61  63 SE12G21   30.11F
CAMP DOUGLAS   PTSUNNY   70  63  78 SE12G22   30.10F
$$

WIZ011>013-019>022-031-037>040-048>050-252000-
NORTHEAST WISCONSIN

CITY           SKY/WX    TMP DP  RH WIND       PRES   REMARKS
ANTIGO         MOSUNNY   67  56  66 S9        30.13F
SHAWANO        CLOUDY    75  61  61 SW3       30.14F
OCONTO         CLOUDY    74  61  63 S8        30.15F
STURGEON BAY     N/A     73  61  65 S14       30.17F
GREEN BAY      CLOUDY    74  63  68 S14G22    30.16F
MANITOWOC      MOSUNNY   74  62  66 S18       30.19S
APPLETON       PTSUNNY   75  55  50 S12G21    30.16F
CLINTONVILLE   CLOUDY   N/A N/A N/A S12G18    30.13F
OSHKOSH        CLOUDY    75  60  59 S10       30.16F
$$

WIZ032>034-041-042-053>061-252000-
SOUTHWEST WISCONSIN

CITY           SKY/WX    TMP DP  RH WIND       PRES   REMARKS
LA CROSSE      CLOUDY    73  65  75 S10       30.08S
SPARTA         CLOUDY    70  63  78 S8        30.11S
VIROQUA        CLOUDY    68  66  94 S13       30.11R
BOSCOBEL       CLOUDY    73  66  78 S7        30.12F
PRAIRIE DU CHI CLOUDY    73  64  72 SE6       30.11S
PLATTEVILLE    CLOUDY    74  67  80 SE8       30.16F
$$

WIZ056-057-062-063-064-067-068-252000-
SOUTH CENTRAL WISCONSIN

CITY           SKY/WX    TMP DP  RH WIND       PRES   REMARKS
REEDSBURG      DRIZZLE   68  65  90 S6        30.13F
BARABOO/DELLS  CLOUDY    73  59  61 S9        30.13F
LONE ROCK      LGT RAIN  72  66  81 S7        30.14F
MINERAL POINT  CLOUDY    75  68  78 SE13      30.15F
MADISON        CLOUDY    75  61  61 S9        30.17F
MIDDLETON      PTSUNNY   76  62  61 S12       30.17F
WATERTOWN      PTSUNNY   75  63  65 S6        30.18F
MONROE         CLOUDY    75  61  60 S8        30.19S
JANESVILLE     NOT AVBL
$$

WIZ051-052-058>065-066-070>072-252000-
SOUTHEAST WISCONSIN

CITY           SKY/WX    TMP DP  RH WIND       PRES   REMARKS
MILWAUKEE      PTSUNNY   78  62  57 SE16      30.19F HX  80
WAUKESHA       MOSUNNY   73  57  56 SW7       30.21F
MILWAUKEE/TIMM MOSUNNY   77  55  47 S8        30.20F
RACINE         SUNNY     76  59  55 SE14      30.22S
KENOSHA        SUNNY     78  60  53 SE14      30.20F
FOND DU LAC    MOSUNNY   76  58  53 S9        30.17F
SHEBOYGAN      PTSUNNY   75  65  70 S12       30.19F
WEST BEND      CLOUDY    75  59  57 S8        30.20S
JUNEAU         PTSUNNY   74  60  60 S9        30.19F
$$

LSZ147-162-252000-
LAKE SUPERIOR

STATION/POSITION TIME  TEMP    WIND        PRES    WAVE
                       AIR SEA DIR/SP/G            HT/PER
                 (UTC) (F)     (DEG/KT/KT) (MB)    (FT/S)
W MID LAKE BUOY  1850   60 52  150/  6/  8 1017.1F   1/ 3
DEVILS ISLAND    1900   75     170/ 10/ 14 1015.7S
PORT WING        1840   77     160/  8/ 13 1015.2F
SAXON HARBOR     1840   77     180/  9/ 17 1016.3S
$$

LMZ867-665-643>646-252000-
LAKE MICHIGAN

STATION/POSITION TIME  TEMP    WIND        PRES    WAVE
                       AIR SEA DIR/SP/G            HT/PER
                 (UTC) (F)     (DEG/KT/KT) (MB)    (FT/S)
CHAMBERS ISLAND  1840   73     210/  8/ 12 1021.0F
S GREEN BAY BUOY 1900   73 72  210/ 14/ 16 1020.6
N MID LAKE BUOY  1850   67 67  180/ 14/ 16 1022.5F   1/ 3
NORTHPORT PIER   1840   72     150/  9/ 13 1021.3F
KEWAUNEE LAKESHO 1848   69     170/ 15/ 18 1021.3F
SHEBOYGAN LAKESH 1900   69     170/ 15/ 16 1022.1F
PORT WASHINGTON  1830   72     160/ 13/ 15 1023.0F
ATWATER BUOY     1839   70 69  150/ 14/ 17 1022.4F
MILWAUKEE LAKESH 1850   70     140/ 16/ 17   N/A
S MID LAKE BUOY  1850   71 70  190/  8/ 10 1023.4F   2/ 4
KENOSHA   LAKESH 1900   72     150/ 12/ 14 1022.0
$$

TC  - TEMPERATURE IN CELSIUS
VSB - VISIBILITY IN STATUTE MILES
WCI - WIND CHILL INDEX
HX  - HEAT INDEX





USA.gov is the U.S. government's official web portal to all federal, state and local government web resources and services.